Weather History for KCNM - August, 2013

Change the Weather History Date:

Tuesday, August 20, 2013

  Actual Average Record
Temperature  
Mean Temperature 82 °F -  
Max Temperature 99 °F 93 °F 108 °F (2007)
Min Temperature 66 °F 67 °F 59 °F (1956)
Cooling Degree Days 17    
Growing Degree Days 32 (Base 50)    
Moisture  
Dew Point 50 °F    
Average Humidity 34    
Maximum Humidity 61    
Minimum Humidity 16    
Precipitation  
Precipitation 0.00 in - - ()
Sea Level Pressure  
Sea Level Pressure 29.85 in    
Wind  
Wind Speed 7 mph (South)    
Max Wind Speed 14 mph    
Max Gust Speed 30 mph    
Visibility 10 miles    
Events Thunderstorm    
Averages and records for this station are not official NWS values.
T = Trace of Precipitation, MM = Missing Value Source: NWS Daily Summary

Daily Weather History Graph

Daily Weather History Graph

Search for Another Location

Airport or City:

Trip Planner

Search our weather history database for the weather conditions in past years. The results will help you decide how hot, cold, wet, or windy it might be!

Date:

Astronomy

Aug. 20, 2013 Rise Set
Actual Time 6:24 AM MDT 7:35 PM MDT
Civil Twilight 5:59 AM MDT 8:01 PM MDT
Nautical Twilight 5:28 AM MDT 8:31 PM MDT
Astronomical Twilight 4:57 AM MDT 9:02 PM MDT
Moon 7:12 PM MDT (8/20) 5:55 AM MDT (8/20)
Length of Visible Light 14h 02m
Length of Day
13h 10m
Full, 100% of the Moon is Illuminated
Aug 20
Full
Aug 20
Full
Aug 28
Last Quarter
Sep 5
New
Sep 12
First Quarter

Hourly Weather History & Observations

Time (MDT) Temp. Heat Index Dew Point Humidity Pressure Visibility Wind Dir Wind Speed Gust Speed Precip Events Conditions
12:53 AM 73.0 °F - 51.1 °F 46% 29.86 in 10.0 mi NNW 8.1 mph - N/A   Clear
1:53 AM 73.0 °F - 48.0 °F 41% 29.84 in 10.0 mi Calm Calm - N/A   Clear
2:53 AM 69.1 °F - 48.9 °F 49% 29.84 in 10.0 mi WSW 4.6 mph - N/A   Clear
3:53 AM 66.9 °F - 51.1 °F 57% 29.83 in 10.0 mi West 5.8 mph - N/A   Clear
4:53 AM 69.1 °F - 52.0 °F 54% 29.83 in 10.0 mi West 10.4 mph - N/A   Clear
5:53 AM 70.0 °F - 54.0 °F 57% 29.85 in 10.0 mi NW 8.1 mph - N/A   Clear
6:53 AM 68.0 °F - 54.0 °F 61% 29.88 in 10.0 mi West 4.6 mph - N/A   Clear
7:53 AM 75.0 °F - 55.0 °F 50% 29.88 in 10.0 mi Calm Calm - N/A   Clear
8:53 AM 80.1 °F 80.2 °F 55.9 °F 43% 29.89 in 10.0 mi NNW 4.6 mph - N/A   Clear
9:53 AM 84.9 °F 83.6 °F 55.0 °F 36% 29.89 in 10.0 mi NNW 5.8 mph - N/A   Clear
10:53 AM 87.1 °F 85.1 °F 54.0 °F 32% 29.88 in 10.0 mi Calm Calm - N/A   Clear
11:53 AM 91.9 °F 89.5 °F 54.0 °F 27% 29.86 in 10.0 mi Variable 5.8 mph - N/A   Clear
12:53 PM 93.9 °F - 52.0 °F 24% 29.84 in 10.0 mi SE 9.2 mph - N/A   Clear
1:53 PM 95.0 °F - 46.0 °F 19% 29.83 in 10.0 mi SSE 8.1 mph - N/A   Clear
2:53 PM 97.0 °F - 46.0 °F 18% 29.81 in 10.0 mi SSE 10.4 mph - N/A   Clear
3:53 PM 98.1 °F - 45.0 °F 16% 29.78 in 10.0 mi South 13.8 mph 17.3 mph N/A   Clear
4:53 PM 98.1 °F - 46.0 °F 17% 29.77 in 10.0 mi SE 13.8 mph 29.9 mph N/A   Partly Cloudy
5:53 PM 96.1 °F - 43.0 °F 16% 29.77 in 10.0 mi SE 12.7 mph - N/A   Clear
6:02 PM 96.8 °F - 42.8 °F 16% 29.95 in 10.0 mi SE 11.5 mph - N/A Thunderstorm Clear
6:17 PM 96.8 °F - 42.8 °F 16% 29.95 in 10.0 mi SE 9.2 mph - N/A   Clear
6:53 PM 93.9 °F - 44.1 °F 18% 29.78 in 10.0 mi SSE 12.7 mph - N/A   Clear
7:53 PM 90.0 °F - 50.0 °F 25% 29.80 in 10.0 mi SE 12.7 mph - N/A   Clear
8:53 PM 87.1 °F - 51.1 °F 29% 29.83 in 10.0 mi SE 12.7 mph - N/A   Clear
9:53 PM 84.9 °F - 51.1 °F 31% 29.84 in 10.0 mi SSE 10.4 mph - N/A   Clear
10:53 PM 81.0 °F - 52.0 °F 36% 29.87 in 10.0 mi South 9.2 mph - N/A   Clear
11:53 PM 79.0 °F - 53.1 °F 40% 29.86 in 10.0 mi SSE 9.2 mph - N/A   Clear